HULIANGWANG DIGUI-02

Last updated on Thu Jan 16 2025 00:02:04 GMT+0000 (Coordinated Universal Time)

1 62324U 24240B 25015.57997626 .00000059 00000+0 84521-4 0 9990 2 62324 86.5064 158.4388 0010298 211.8906 148.1613 13.37544388 4040
UTC large
Height (km)
Speed (km/s)
/
Latitude / Longitude
Inclination (degrees)
Orbital Period (minutes)
Azimuth
Elevation
Range (km)
Doppler Factor

Next 0 passes for location: London (51.5072 / 0.1276)

Sorry there are no passes over London.